CAPE
0 0 0 0 0 0 0 0 0 0 0 409 542 991 1006 829 529 411 1746 1988 2017 1846 1936 2098 2036 1771 1518 1553 1611 1775 1793 1792 1681 1625 1593 1574 1596 1656 1762 1840 1801 1464 1007 317 208 1 0 0 0
0 0 0 0 0 0 0 0 0 0 0 0 12 413 845 942 1093 1596 1691 1952 2013 1823 1828 1836 2073 1780 1265 1226 1410 1661 1694 1717 1645 1552 1539 1499 1499 1606 1644 1761 1714 1304 900 256 91 0 0 0 0
0 0 0 0 0 0 0 0 0 0 0 0 0 0 158 442 944 1314 1949 1902 1827 1774 1688 1703 2098 1883 1415 1080 1055 1438 1598 1594 1563 1480 1384 1366 1427 1464 1472 1574 1596 1034 536 239 26 0 0 0 0
0 0 0 0 0 0 0 0 0 0 0 0 0 0 0 272 526 1052 2061 1979 1719 1667 1654 2059 2186 2025 1708 1161 1033 1098 1272 1524 1545 1409 1326 1335 1371 1335 1359 1438 1355 1127 496 243 55 0 0 0 0
0 0 0 0 0 0 0 0 0 0 0 0 0 0 0 195 1610 1824 1846 1755 1328 1348 1629 2076 2206 2086 1826 1296 1163 1107 1318 1513 1559 1528 1436 1409 1345 1208 1206 1251 1227 943 770 496 196 14 0 0 0
0 0 0 0 0 0 0 0 0 0 0 0 0 0 0 0 16 1634 1657 1533 1335 1158 1749 2044 2159 2139 1951 1663 1464 1441 1426 1566 1595 1673 1594 1636 1452 1278 1194 1200 1142 1072 975 752 416 43 0 0 0
0 0 0 0 0 0 0 0 0 0 0 0 0 0 0 0 0 216 1698 1637 1675 1432 1654 1966 2008 2017 1988 1819 1606 1597 1501 1510 1603 1596 1655 1659 1610 1430 1329 1256 1214 1177 1096 913 503 107 0 0 0
0 0 0 0 0 0 0 0 0 0 0 0 0 0 0 0 0 653 1774 1666 1749 1580 1561 1639 1896 1924 1794 1682 1816 1657 1556 1439 1583 1609 1630 1664 1614 1457 1392 1155 1215 1247 1137 928 529 187 40 0 0
0 0 0 0 0 0 0 0 0 0 0 0 0 0 0 0 0 941 1476 1609 1671 1665 1636 1488 1568 1729 1822 1616 1490 1659 1408 1363 1522 1589 1612 1438 1156 1054 1015 1026 923 1210 1120 974 684 326 100 37 2
0 0 0 0 0 0 0 0 0 0 0 0 0 0 0 0 0 0 0 0 636 1417 1653 1594 1545 1436 1666 1664 1404 1375 1204 1135 1199 1203 1219 1117 926 711 703 837 966 1063 1158 1084 840 534 242 148 0
0 0 0 0 0 0 0 0 0 0 0 0 0 0 0 0 0 0 0 0 0 135 789 1506 1515 1471 1382 1585 1292 1189 1110 1148 1112 1000 983 960 658 646 779 553 720 686 899 604 370 206 33 0 13
0 0 0 0 0 0 0 0 0 0 0 0 0 0 0 0 0 0 0 0 0 0 141 1039 1477 1464 1248 1200 1316 1129 901 937 990 699 874 667 523 438 459 425 311 386 338 348 218 60 0 0 0
0 0 0 0 0 0 0 0 0 0 0 0 0 0 0 0 0 0 0 0 0 0 0 86 1018 1474 1437 1302 1171 1083 945 801 754 692 725 580 358 312 309 307 236 176 187 159 90 48 0 0 0
0 0 0 0 0 0 0 0 0 0 0 0 0 0 0 0 0 0 0 0 0 0 0 0 10 890 1098 1265 1196 1083 1114 1151 850 706 705 774 443 265 235 212 192 121 84 78 44 5 0 0 0
0 0 0 0 0 0 0 0 0 0 0 0 0 0 0 0 0 0 0 0 0 0 0 0 0 6 721 1073 1262 1273 1245 1089 907 756 669 1039 670 328 153 139 130 102 38 27 15 15 0 4 0
0 0 0 0 0 0 0 0 0 0 0 0 0 0 0 0 0 0 0 0 0 0 0 0 0 0 97 689 1022 1272 1336 1168 950 765 690 565 918 509 262 87 64 97 46 24 10 3 7 23 66
0 0 0 0 0 0 0 0 0 0 0 0 0 0 0 0 0 0 0 0 0 0 0 0 0 0 0 75 433 804 1178 1225 1134 966 864 809 815 553 297 208 62 86 56 47 25 23 46 60 28
0 0 0 0 0 0 0 0 0 0 0 0 0 0 0 0 0 0 0 0 0 0 0 0 0 0 0 0 194 356 609 1093 1161 1145 1017 861 746 699 568 329 162 73 83 85 74 72 142 187 52
0 0 0 0 0 0 0 0 0 0 0 0 0 0 0 0 0 0 0 0 0 0 0 0 0 0 0 0 154 558 477 623 911 1091 1147 1068 908 741 673 519 379 198 98 85 94 104 185 228 179
0 0 0 0 0 0 0 0 0 0 0 0 0 0 0 0 0 0 0 0 0 0 0 0 0 0 0 0 0 93 367 731 686 773 827 1037 1000 824 712 624 483 329 229 146 100 167 239 161 354
0 0 0 0 0 0 0 0 0 0 0 0 0 0 0 0 0 0 0 0 0 0 0 0 0 0 0 0 0 0 0 94 352 781 789 839 945 935 828 774 561 552 348 253 162 135 348 342 719
0 0 0 0 0 0 0 0 0 0 0 0 0 10 0 0 0 0 0 0 0 0 0 0 0 0 0 0 0 0 0 0 193 605 781 655 815 917 991 881 699 552 445 295 283 101 390 358 719
0 0 0 0 0 0 0 0 0 0 0 2 0 0 0 0 0 0 0 0 0 0 0 0 0 0 0 0 0 0 0 0 0 67 554 703 664 805 1030 887 715 575 413 378 244 151 492 471 332
0 0 0 0 0 0 0 0 0 0 0 3 0 0 0 0 0 0 0 0 0 0 0 0 0 0 0 0 0 0 0 0 0 0 14 545 779 788 859 849 739 604 516 438 393 178 635 643 424
0 0 0 0 0 0 0 0 0 0 0 0 0 0 0 0 0 0 0 0 0 0 0 0 0 0 0 1 1 0 0 0 0 0 0 34 475 772 870 975 889 765 677 589 488 288 414 588 442
0 0 0 0 0 0 0 0 0 8 0 0 0 0 0 0 0 0 0 0 0 0 0 0 0 0 0 2 2 0 0 0 0 0 0 0 111 380 855 1034 949 842 777 538 398 318 309 433 392
0 0 0 0 0 0 0 0 0 0 0 0 0 0 0 0 0 0 0 0 0 0 0 0 0 0 0 0 0 0 0 0 0 0 0 29 60 234 777 840 838 741 751 616 446 329 315 287 307
0 0 0 0 0 0 0 0 0 0 0 0 0 0 0 0 0 0 0 0 0 0 0 0 0 0 0 0 0 0 0 0 0 0 0 4 213 357 710 776 792 631 602 638 509 393 330 234 223
0 0 0 0 0 0 0 0 0 0 0 0 0 0 0 0 0 0 0 0 0 0 0 0 0 0 0 0 0 0 0 0 0 0 0 0 396 668 600 614 589 587 383 389 337 155 96 152 216
0 6 2 11 0 2 2 0 0 0 0 0 0 0 0 0 0 0 0 0 0 0 0 0 0 0 1 0 0 0 0 3 7 0 0 144 830 837 746 614 590 485 289 314 247 176 141 72 189
CIN
-0 -0 -0 -0 -0 -0 -0 -0 -0 -0 -0 -37 -64 -78 -83 -132 -40 -59 -272 -346 -342 -344 -270 -209 -174 -207 -245 -216 -190 -145 -143 -156 -164 -179 -177 -156 -141 -116 -75 -45 -34 -67 -125 -254 -296 -50 -0 -0 -0
-0 -0 -0 -0 -0 -0 -0 -0 -0 -0 -0 -0 -85 -54 -75 -89 -144 -142 -120 -338 -338 -330 -282 -234 -147 -175 -267 -260 -221 -166 -159 -167 -173 -167 -171 -169 -142 -114 -94 -59 -44 -82 -149 -278 -330 -0 -0 -0 -0
-0 -0 -0 -0 -0 -0 -0 -0 -0 -0 -0 -0 -0 -0 -109 -78 -93 -191 -260 -307 -351 -318 -283 -232 -137 -150 -218 -260 -246 -172 -164 -168 -163 -168 -174 -170 -140 -136 -123 -95 -79 -144 -227 -294 -151 -0 -0 -0 -0
-0 -0 -0 -0 -0 -0 -0 -0 -0 -0 -0 -0 -0 -0 -0 -217 -131 -296 -272 -246 -177 -305 -258 -164 -135 -150 -163 -247 -240 -195 -168 -148 -146 -155 -174 -171 -153 -150 -143 -120 -124 -149 -248 -298 -385 -0 -0 -0 -0
-0 -0 -0 -0 -0 -0 -0 -0 -0 -0 -0 -0 -0 -0 -0 -153 -140 -171 -238 -262 -252 -318 -243 -157 -125 -119 -139 -214 -222 -214 -160 -129 -120 -131 -145 -149 -156 -161 -161 -143 -144 -186 -199 -244 -312 -130 -0 -0 -0
-0 -0 -0 -0 -0 -0 -0 -0 -0 -0 -0 -0 -0 -0 -0 -0 -14 -126 -166 -228 -278 -310 -189 -139 -111 -113 -134 -151 -171 -172 -169 -137 -108 -89 -103 -109 -124 -141 -153 -135 -144 -146 -167 -190 -252 -376 -0 -0 -0
-0 -0 -0 -0 -0 -0 -0 -0 -0 -0 -0 -0 -0 -0 -0 -0 -0 -82 -117 -36 -18 -24 -168 -120 -107 -102 -93 -118 -148 -156 -172 -168 -138 -109 -85 -82 -94 -104 -114 -112 -115 -102 -112 -153 -224 -350 -0 -0 -0
-0 -0 -0 -0 -0 -0 -0 -0 -0 -0 -0 -0 -0 -0 -0 -0 -0 -332 -113 -89 -28 -22 -18 -148 -109 -84 -86 -99 -92 -106 -121 -147 -144 -133 -104 -74 -64 -71 -68 -99 -98 -79 -77 -113 -208 -307 -423 -0 -0
-0 -0 -0 -0 -0 -0 -0 -0 -0 -0 -0 -0 -0 -0 -0 -0 -0 -123 -96 -97 -85 -68 -51 -123 -135 -111 -85 -91 -100 -79 -103 -118 -102 -96 -100 -107 -122 -114 -111 -110 -131 -77 -72 -92 -153 -240 -340 -432 -46
-0 -0 -0 -0 -0 -0 -0 -0 -0 -0 -0 -0 -0 -0 -0 -0 -0 -0 -0 -0 -184 -141 -125 -105 -89 -146 -101 -94 -125 -120 -122 -114 -96 -103 -113 -131 -165 -205 -182 -141 -104 -81 -58 -71 -108 -168 -245 -288 -0
-0 -0 -0 -0 -0 -0 -0 -0 -0 -0 -0 -0 -0 -0 -0 -0 -0 -0 -0 -0 -0 -287 -221 -158 -118 -158 -159 -122 -141 -134 -132 -122 -129 -121 -108 -108 -174 -170 -159 -217 -163 -168 -106 -172 -236 -294 -369 -0 -132
-0 -0 -0 -0 -0 -0 -0 -0 -0 -0 -0 -0 -0 -0 -0 -0 -0 -0 -0 -0 -0 -0 -275 -210 -155 -110 -153 -55 -130 -33 -163 -136 -126 -178 -132 -133 -160 -208 -223 -248 -294 -260 -265 -260 -296 -428 -0 -0 -0
-0 -0 -0 -0 -0 -0 -0 -0 -0 -0 -0 -0 -0 -0 -0 -0 -0 -0 -0 -0 -0 -0 -0 -151 -210 -151 -141 -164 -180 -177 -59 -41 -171 -167 -147 -162 -244 -253 -245 -282 -308 -369 -361 -370 -403 -440 -0 -0 -0
-0 -0 -0 -0 -0 -0 -0 -0 -0 -0 -0 -0 -0 -0 -0 -0 -0 -0 -0 -0 -0 -0 -0 -0 -17 -187 -197 -160 -142 -103 -44 -41 -88 -166 -161 -120 -203 -296 -309 -296 -315 -369 -462 -447 -453 -342 -0 -0 -0
-0 -0 -0 -0 -0 -0 -0 -0 -0 -0 -0 -0 -0 -0 -0 -0 -0 -0 -0 -0 -0 -0 -0 -0 -0 -14 -213 -184 -144 -104 -55 -49 -36 -193 -174 -86 -142 -221 -313 -373 -363 -383 -413 -495 -486 -476 -29 -428 -0
-0 -0 -0 -0 -0 -0 -0 -0 -0 -0 -0 -0 -0 -0 -0 -0 -0 -0 -0 -0 -0 -0 -0 -0 -0 -0 -356 -189 -144 -137 -120 -111 -136 -158 -178 -79 -103 -157 -27 -323 -430 -407 -360 -394 -463 -507 -366 -295 -141
-0 -0 -0 -0 -0 -0 -0 -0 -0 -0 -0 -0 -0 -0 -0 -0 -0 -0 -0 -0 -0 -0 -0 -0 -0 -0 -0 -382 -205 -123 -104 -129 -124 -108 -119 -161 -137 -144 -166 -27 -330 -395 -320 -305 -343 -287 -227 -251 -475
-0 -0 -0 -0 -0 -0 -0 -0 -0 -0 -0 -0 -0 -0 -0 -0 -0 -0 -0 -0 -0 -0 -0 -0 -0 -0 -0 -9 -291 -185 -153 -98 -97 -122 -112 -112 -128 -138 -124 -18 -208 -281 -277 -234 -234 -205 -108 -135 -310
-0 -0 -0 -0 -0 -0 -0 -0 -0 -0 -0 -0 -0 -0 -0 -0 -0 -0 -0 -0 -0 -0 -0 -0 -0 -0 -0 -0 -307 -147 -151 -159 -105 -117 -136 -110 -90 -95 -125 -107 -10 -166 -195 -308 -184 -131 -56 -81 -180
-0 -0 -0 -0 -0 -0 -0 -0 -0 -0 -0 -0 -0 -0 -0 -0 -0 -0 -5 -0 -0 -0 -0 -0 -0 -0 -0 -0 -0 -236 -155 -91 -113 -116 -104 -134 -94 -75 -11 -91 -109 -55 -149 -172 -183 -85 -32 -157 -69
-0 -0 -0 -0 -0 -0 -0 -0 -0 -0 -0 -0 -0 -0 -0 -0 -0 -0 -0 -0 -0 -0 -0 -0 -0 -0 -0 -0 -0 -0 -0 -375 -140 -93 -115 -114 -104 -67 -51 -14 -86 -92 -123 -119 -126 -122 -23 -57 -13
-0 -0 -0 -0 -0 -0 -0 -0 -0 -0 -0 -0 -1 -8 -0 -0 -0 -0 -0 -0 -0 -0 -0 -0 -0 -0 -0 -0 -0 -0 -0 -0 -306 -85 -98 -123 -120 -95 -34 -12 -15 -84 -127 -76 -76 -253 -11 -31 -6
-0 -0 -0 -0 -0 -0 -0 -0 -0 -0 -0 -6 -0 -0 -0 -0 -0 -0 -0 -0 -0 -0 -0 -0 -0 -0 -0 -0 -0 -0 -0 -0 -0 -443 -99 -93 -132 -111 -49 -29 -30 -25 -28 -115 -80 -224 -8 -7 -23
-0 -0 -0 -0 -0 -0 -0 -0 -0 -0 -0 -45 -0 -0 -0 -0 -0 -0 -0 -0 -0 -0 -0 -0 -0 -0 -0 -0 -0 -0 -0 -0 -0 -0 -395 -120 -114 -126 -99 -54 -44 -43 -18 -61 -59 -186 -4 -3 -7
-0 -0 -0 -0 -0 -0 -0 -0 -0 -0 -0 -0 -0 -0 -0 -0 -0 -0 -0 -0 -0 -0 -0 -0 -0 -0 -0 -0 -0 -0 -0 -0 -0 -0 -0 -522 -149 -102 -99 -93 -90 -79 -61 -38 -42 -28 -3 -1 -12
-0 -0 -0 -0 -0 -0 -0 -0 -0 -77 -7 -0 -0 -0 -0 -0 -0 -0 -0 -0 -0 -0 -0 -0 -0 -0 -0 -5 -1 -0 -0 -0 -0 -0 -0 -17 -407 -191 -129 -95 -93 -75 -43 -57 -58 -35 -23 -2 -16
-0 -0 -0 -0 -0 -0 -0 -0 -0 -25 -34 -0 -0 -0 -0 -0 -0 -0 -0 -0 -0 -0 -0 -0 -0 -0 -0 -0 -0 -0 -0 -0 -0 -0 -0 -408 -427 -234 -120 -141 -105 -98 -57 -38 -41 -36 -40 -7 -11
-0 -0 -0 -0 -0 -0 -0 -0 -0 -0 -0 -0 -0 -0 -0 -0 -0 -0 -0 -0 -0 -0 -0 -0 -0 -0 -0 -0 -0 -0 -0 -0 -0 -0 -0 -55 -130 -130 -115 -133 -102 -84 -52 -23 -27 -34 -30 -20 -7
-0 -0 -0 -0 -0 -0 -0 -0 -0 -0 -0 -0 -0 -0 -0 -0 -0 -0 -0 -0 -0 -0 -0 -0 -0 -0 -0 -0 -0 -0 -0 -0 -0 -0 -0 -0 -14 -63 -96 -133 -122 -74 -64 -29 -11 -15 -7 -9 -6
-0 -11 -0 -0 -0 -0 -0 -0 -0 -0 -0 -0 -0 -0 -0 -0 -0 -0 -0 -0 -0 -0 -0 -0 -0 -0 -2 -0 -0 -0 -0 -161 -174 -0 -0 -56 -1 -35 -47 -73 -83 -52 -53 -24 -11 -4 -3 -17 -0
Wind_Speed
nan nan nan nan nan nan nan nan nan nan nan 28 28 27 28 24 17 10 13 14 8 9 12 14 18 23 24 22 20 17 14 17 20 22 23 22 20 21 21 21 21 23 24 24 25 nan nan nan nan
nan nan nan nan nan nan nan nan nan nan nan nan nan 30 29 22 21 14 16 18 19 19 19 19 21 22 24 24 23 19 18 19 19 21 23 23 22 19 21 21 20 20 22 22 nan nan nan nan nan
nan nan nan nan nan nan nan nan nan nan nan nan nan nan 26 21 18 18 23 26 26 26 24 24 25 24 24 26 24 22 20 22 21 21 22 22 22 22 21 21 20 20 20 20 nan nan nan nan nan
nan nan nan nan nan nan nan nan nan nan nan nan nan nan nan 24 23 24 29 30 29 27 26 26 27 26 25 26 25 23 23 23 21 21 22 24 24 22 22 22 20 20 19 19 nan nan nan nan nan
nan nan nan nan nan nan nan nan nan nan nan nan nan nan nan 32 26 32 32 33 30 26 25 26 29 27 25 27 27 26 23 21 18 19 20 24 24 23 23 22 22 21 19 17 17 nan nan nan nan
nan nan nan nan nan nan nan nan nan nan nan nan nan nan nan nan nan 24 24 25 28 29 27 26 25 26 27 25 25 27 25 22 17 15 18 20 23 23 22 22 21 21 20 18 16 nan nan nan nan
nan nan nan nan nan nan nan nan nan nan nan nan nan nan nan nan nan 21 22 27 28 29 29 27 26 24 23 25 25 26 28 26 23 19 17 18 19 21 21 21 20 20 20 19 18 16 nan nan nan
nan nan nan nan nan nan nan nan nan nan nan nan nan nan nan nan nan 30 31 30 29 28 27 29 31 28 26 26 24 25 25 28 27 24 20 18 17 18 20 21 20 20 20 18 18 18 nan nan nan
nan nan nan nan nan nan nan nan nan nan nan nan nan nan nan nan nan 31 28 27 28 26 25 27 30 31 31 30 27 25 24 25 27 22 21 21 21 19 19 21 20 20 20 18 18 18 18 nan nan
nan nan nan nan nan nan nan nan nan nan nan nan nan nan nan nan nan nan nan nan 26 26 26 26 28 29 34 31 33 33 31 30 28 29 26 24 26 24 21 20 18 18 19 19 19 20 19 21 nan
nan nan nan nan nan nan nan nan nan nan nan nan nan nan nan nan nan nan nan nan nan 30 32 31 32 33 32 37 40 38 35 34 32 30 32 29 27 27 25 26 25 25 21 26 25 26 nan nan nan
nan nan nan nan nan nan nan nan nan nan nan nan nan nan nan nan nan nan nan nan nan nan 35 37 38 39 36 38 45 42 40 39 36 30 31 34 33 32 29 28 28 28 28 27 26 nan nan nan nan
nan nan nan nan nan nan nan nan nan nan nan nan nan nan nan nan nan nan nan nan nan nan nan nan 42 41 39 40 42 48 47 44 40 40 34 32 34 36 36 32 33 31 31 30 nan nan nan nan nan
nan nan nan nan nan nan nan nan nan nan nan nan nan nan nan nan nan nan nan nan nan nan nan nan nan 40 45 44 43 44 49 52 48 45 42 34 37 39 40 38 36 34 nan nan nan nan nan nan nan
nan nan nan nan nan nan nan nan nan nan nan nan nan nan nan nan nan nan nan nan nan nan nan nan nan nan 42 44 46 46 48 48 54 52 46 41 41 41 42 41 40 37 nan nan nan nan nan nan nan
nan nan nan nan nan nan nan nan nan nan nan nan nan nan nan nan nan nan nan nan nan nan nan nan nan nan nan 42 44 45 47 49 48 54 56 46 45 47 44 nan nan nan nan nan nan nan nan nan nan
nan nan nan nan nan nan nan nan nan nan nan nan nan nan nan nan nan nan nan nan nan nan nan nan nan nan nan nan 43 39 37 42 43 45 52 54 53 52 50 45 nan nan nan nan nan nan nan nan nan
nan nan nan nan nan nan nan nan nan nan nan nan nan nan nan nan nan nan nan nan nan nan nan nan nan nan nan nan 43 43 40 33 33 36 37 47 58 57 56 50 45 nan nan nan nan nan 34 33 nan
nan nan nan nan nan nan nan nan nan nan nan nan nan nan nan nan nan nan nan nan nan nan nan nan nan nan nan nan 45 46 41 37 34 32 30 35 45 58 59 57 51 48 nan nan nan 43 40 34 38
nan nan nan nan nan nan nan nan nan nan nan nan nan nan nan nan nan nan nan nan nan nan nan nan nan nan nan nan nan nan 45 43 35 34 29 31 35 43 59 58 55 46 48 48 47 45 44 44 37
nan nan nan nan nan nan nan nan nan nan nan nan nan nan nan nan nan nan nan nan nan nan nan nan nan nan nan nan nan nan nan nan 40 40 40 34 33 36 46 50 53 55 45 45 48 45 46 42 36
nan nan nan nan nan nan nan nan nan nan nan nan nan nan nan nan nan nan nan nan nan nan nan nan nan nan nan nan nan nan nan nan 39 37 37 34 32 34 37 50 50 48 52 38 47 46 45 48 37
nan nan nan nan nan nan nan nan nan nan nan nan nan nan nan nan nan nan nan nan nan nan nan nan nan nan nan nan nan nan nan nan nan nan 38 37 35 33 38 39 52 59 53 50 42 51 47 43 40
nan nan nan nan nan nan nan nan nan nan nan nan nan nan nan nan nan nan nan nan nan nan nan nan nan nan nan nan nan nan nan nan nan nan nan 42 42 38 37 38 41 55 57 50 50 48 47 41 41
nan nan nan nan nan nan nan nan nan nan nan nan nan nan nan nan nan nan nan nan nan nan nan nan nan nan nan nan nan nan nan nan nan nan nan nan 42 45 39 40 39 54 56 55 52 55 51 44 43
nan nan nan nan nan nan nan nan nan nan nan nan nan nan nan nan nan nan nan nan nan nan nan nan nan nan nan nan nan nan nan nan nan nan nan nan 39 43 41 42 40 44 59 61 60 58 55 55 55
nan nan nan nan nan nan nan nan nan nan nan nan nan nan nan nan nan nan nan nan nan nan nan nan nan nan nan nan nan nan nan nan nan nan nan nan nan 46 48 42 45 42 56 61 62 64 62 59 55
nan nan nan nan nan nan nan nan nan nan nan nan nan nan nan nan nan nan nan nan nan nan nan nan nan nan nan nan nan nan nan nan nan nan nan nan 45 47 47 48 45 42 47 61 66 64 64 57 61
nan nan nan nan nan nan nan nan nan nan nan nan nan nan nan nan nan nan nan nan nan nan nan nan nan nan nan nan nan nan nan nan nan nan nan nan 45 51 54 51 43 43 39 62 64 60 nan 60 50
nan nan nan nan nan nan nan nan nan nan nan nan nan nan nan nan nan nan nan nan nan nan nan nan nan nan nan nan nan nan nan nan nan nan nan 40 42 51 58 49 47 45 44 56 64 64 66 nan 50
Wind_Direction
nan nan nan nan nan nan nan nan nan nan nan 219 222 227 246 245 265 268 237 259 257 279 289 306 309 307 305 305 303 302 296 293 306 303 304 310 314 315 309 303 306 310 313 315 320 nan nan nan nan
nan nan nan nan nan nan nan nan nan nan nan nan nan 241 235 240 243 249 255 262 260 276 278 289 302 297 299 297 297 300 304 299 301 310 308 306 305 307 302 304 307 310 310 313 nan nan nan nan nan
nan nan nan nan nan nan nan nan nan nan nan nan nan nan 252 244 241 252 266 277 272 278 282 291 295 293 294 291 293 294 294 293 299 304 307 306 304 299 300 302 307 310 312 318 nan nan nan nan nan
nan nan nan nan nan nan nan nan nan nan nan nan nan nan nan 263 267 260 275 274 274 277 279 291 293 292 291 297 295 290 286 288 295 300 302 302 302 302 302 303 304 307 314 318 nan nan nan nan nan
nan nan nan nan nan nan nan nan nan nan nan nan nan nan nan 246 251 270 271 270 268 270 270 277 288 289 291 294 299 298 289 283 289 290 297 303 302 299 299 301 303 306 309 313 314 nan nan nan nan
nan nan nan nan nan nan nan nan nan nan nan nan nan nan nan nan nan 260 264 267 262 268 266 269 283 287 292 293 293 293 292 289 288 279 283 287 294 295 294 297 306 305 305 306 306 nan nan nan nan
nan nan nan nan nan nan nan nan nan nan nan nan nan nan nan nan nan 247 251 251 257 261 263 263 266 275 285 289 293 292 291 288 285 284 278 277 284 288 289 293 296 299 298 301 301 304 nan nan nan
nan nan nan nan nan nan nan nan nan nan nan nan nan nan nan nan nan 250 250 251 254 260 263 267 268 268 264 262 281 285 282 286 288 285 281 272 274 282 288 286 286 290 294 295 298 302 nan nan nan
nan nan nan nan nan nan nan nan nan nan nan nan nan nan nan nan nan 258 258 260 261 257 258 258 260 268 270 267 263 273 283 282 281 278 281 264 249 258 273 275 284 287 289 291 290 291 294 nan nan
nan nan nan nan nan nan nan nan nan nan nan nan nan nan nan nan nan nan nan nan 268 273 275 270 263 264 268 267 266 261 260 261 261 260 252 247 249 247 255 267 281 285 285 282 280 282 281 281 nan
nan nan nan nan nan nan nan nan nan nan nan nan nan nan nan nan nan nan nan nan nan 271 266 272 270 265 262 265 262 262 258 253 254 258 258 251 248 247 247 249 250 261 271 267 269 271 nan nan nan
nan nan nan nan nan nan nan nan nan nan nan nan nan nan nan nan nan nan nan nan nan nan 276 272 270 268 266 252 262 263 264 260 256 248 253 254 249 251 250 248 251 248 255 263 267 nan nan nan nan
nan nan nan nan nan nan nan nan nan nan nan nan nan nan nan nan nan nan nan nan nan nan nan nan 272 272 269 267 262 265 261 260 258 256 249 244 249 251 253 252 252 250 246 254 nan nan nan nan nan
nan nan nan nan nan nan nan nan nan nan nan nan nan nan nan nan nan nan nan nan nan nan nan nan nan 273 276 275 267 262 260 260 256 254 254 248 241 244 252 254 255 254 nan nan nan nan nan nan nan
nan nan nan nan nan nan nan nan nan nan nan nan nan nan nan nan nan nan nan nan nan nan nan nan nan nan 272 275 273 268 261 256 258 256 254 251 246 242 245 250 254 254 nan nan nan nan nan nan nan
nan nan nan nan nan nan nan nan nan nan nan nan nan nan nan nan nan nan nan nan nan nan nan nan nan nan nan 270 267 270 267 263 256 252 255 253 252 247 243 nan nan nan nan nan nan nan nan nan nan
nan nan nan nan nan nan nan nan nan nan nan nan nan nan nan nan nan nan nan nan nan nan nan nan nan nan nan nan 273 268 268 275 270 258 252 255 253 252 247 241 nan nan nan nan nan nan nan nan nan
nan nan nan nan nan nan nan nan nan nan nan nan nan nan nan nan nan nan nan nan nan nan nan nan nan nan nan nan 273 275 274 278 277 277 264 255 252 253 252 242 241 nan nan nan nan nan 251 250 nan
nan nan nan nan nan nan nan nan nan nan nan nan nan nan nan nan nan nan nan nan nan nan nan nan nan nan nan nan 264 270 275 272 274 276 286 273 259 254 253 249 241 245 nan nan nan 252 255 249 255
nan nan nan nan nan nan nan nan nan nan nan nan nan nan nan nan nan nan nan nan nan nan nan nan nan nan nan nan nan nan 263 265 268 266 265 276 273 264 251 251 248 241 243 245 251 255 253 248 249
nan nan nan nan nan nan nan nan nan nan nan nan nan nan nan nan nan nan nan nan nan nan nan nan nan nan nan nan nan nan nan nan 261 270 273 268 269 270 249 247 248 244 240 245 248 254 256 256 247
nan nan nan nan nan nan nan nan nan nan nan nan nan nan nan nan nan nan nan nan nan nan nan nan nan nan nan nan nan nan nan nan 260 263 267 269 267 264 264 243 241 245 241 234 255 250 252 256 251
nan nan nan nan nan nan nan nan nan nan nan nan nan nan nan nan nan nan nan nan nan nan nan nan nan nan nan nan nan nan nan nan nan nan 267 270 271 253 265 264 240 241 244 240 243 249 252 253 252
nan nan nan nan nan nan nan nan nan nan nan nan nan nan nan nan nan nan nan nan nan nan nan nan nan nan nan nan nan nan nan nan nan nan nan 262 262 258 249 266 256 233 235 242 240 246 253 256 248
nan nan nan nan nan nan nan nan nan nan nan nan nan nan nan nan nan nan nan nan nan nan nan nan nan nan nan nan nan nan nan nan nan nan nan nan 256 258 251 253 259 238 231 235 241 243 246 249 251
nan nan nan nan nan nan nan nan nan nan nan nan nan nan nan nan nan nan nan nan nan nan nan nan nan nan nan nan nan nan nan nan nan nan nan nan 251 251 253 246 251 251 235 234 238 239 237 242 242
nan nan nan nan nan nan nan nan nan nan nan nan nan nan nan nan nan nan nan nan nan nan nan nan nan nan nan nan nan nan nan nan nan nan nan nan nan 244 250 249 246 258 240 234 239 240 243 240 229
nan nan nan nan nan nan nan nan nan nan nan nan nan nan nan nan nan nan nan nan nan nan nan nan nan nan nan nan nan nan nan nan nan nan nan nan 239 245 247 249 247 251 245 234 238 242 248 255 237
nan nan nan nan nan nan nan nan nan nan nan nan nan nan nan nan nan nan nan nan nan nan nan nan nan nan nan nan nan nan nan nan nan nan nan nan 235 241 244 244 245 245 249 235 235 241 nan 258 245
nan nan nan nan nan nan nan nan nan nan nan nan nan nan nan nan nan nan nan nan nan nan nan nan nan nan nan nan nan nan nan nan nan nan nan 240 238 238 242 243 242 241 246 243 237 240 247 nan 259